Theta_e
336 335 336 338 339 340 338 337 336 335 332 329 328 327 325 324 323 323 321 320 319 321 318 315 312 308 305 310 309 308 305 310
333 332 334 336 337 337 336 334 332 333 330 326 324 322 319 318 317 315 315 313 313 312 312 309 305 303 307 310 308 305 308 311
329 327 330 332 334 335 333 333 333 334 331 327 323 317 313 313 311 310 310 310 309 309 309 307 304 305 308 309 307 306 306 309
327 325 323 326 329 331 331 330 330 330 328 325 318 312 310 308 307 307 307 308 308 307 307 306 305 305 306 307 307 306 305 305
325 322 320 322 325 327 328 328 328 326 325 324 319 311 307 307 306 306 306 306 307 306 306 305 304 305 305 306 305 305 305 304
325 323 322 324 324 324 326 326 325 324 320 321 315 311 308 306 306 306 306 306 306 306 305 304 303 304 304 304 304 303 303 303
326 324 321 320 322 323 323 325 321 317 316 314 314 310 307 306 305 305 305 306 306 305 305 304 303 303 303 302 302 301 300 298
326 323 320 317 317 320 322 321 315 313 313 313 313 310 307 306 304 304 305 305 305 304 304 303 303 302 302 299 299 299 298 297
325 323 320 318 316 318 318 317 314 313 313 312 310 309 307 305 304 304 305 304 303 303 303 302 302 301 300 298 297 298 296 295
322 322 321 319 316 316 318 317 314 314 313 312 309 307 306 305 305 304 304 303 302 302 302 301 301 300 298 297 296 295 294 295
321 321 320 319 317 315 315 314 313 312 311 311 307 306 305 306 305 304 303 302 301 301 302 301 300 299 298 297 297 296 295 295
320 318 318 318 316 312 310 311 310 308 308 307 306 306 306 305 305 304 302 302 300 300 300 300 299 299 298 297 297 297 296 295
317 314 314 314 312 308 308 308 309 307 306 306 305 305 305 305 304 303 302 301 300 300 299 299 299 299 298 297 297 296 296 295
315 312 310 310 308 308 307 306 306 306 306 305 305 304 304 303 303 303 302 301 300 299 299 298 298 298 297 297 296 295 295 295
313 310 308 309 307 306 305 305 306 305 305 304 304 304 303 303 302 302 301 300 299 298 298 298 298 297 297 296 296 295 295 295
311 308 307 307 307 306 305 304 304 304 304 303 303 303 303 302 302 302 300 299 298 298 297 297 297 297 297 296 296 295 295 294
310 308 307 307 307 306 304 304 303 303 302 302 303 303 302 302 301 301 299 299 298 297 296 296 296 297 296 296 295 295 294 294
310 309 308 307 307 306 304 304 303 303 302 302 302 302 302 301 301 300 299 298 297 296 293 290 293 296 296 295 295 295 294 293
304 313 310 308 307 306 304 303 302 302 302 301 301 301 301 301 300 300 299 298 296 295 291 289 290 294 295 295 295 294 293 293
Wind_Speed
25 32 35 37 38 38 37 34 32 30 27 23 19 15 13 12 11 10 10 9 7 7 7 4 2 3 7 9 9 9 9 15
23 28 38 40 41 39 36 34 31 29 26 24 20 18 15 13 11 11 10 10 8 9 9 7 6 8 11 11 13 13 20 33
18 25 28 32 38 36 33 32 30 27 26 24 20 22 16 15 14 13 12 12 11 10 10 10 10 11 13 14 13 19 20 12
14 18 22 29 34 34 31 30 29 27 25 22 23 18 20 19 16 15 13 12 13 11 10 11 12 12 14 14 14 17 20 21
15 17 21 29 32 29 28 28 28 27 26 26 33 29 25 21 20 18 16 14 14 13 12 12 14 14 16 16 14 16 18 19
17 20 30 34 31 30 27 28 29 30 30 32 33 29 24 25 22 20 18 16 15 14 15 15 16 16 17 17 17 18 19 19
18 26 25 28 32 31 32 31 33 30 33 34 31 32 33 30 26 24 21 19 18 15 16 17 17 17 17 18 18 19 21 23
19 17 21 23 29 34 33 35 32 33 34 33 33 33 34 30 29 27 25 23 20 18 18 19 18 17 18 19 21 21 22 25
20 18 24 28 29 34 33 34 33 35 33 32 32 34 33 30 29 28 25 24 22 21 20 19 19 18 18 21 23 23 23 25
21 19 28 30 32 38 42 38 35 34 36 31 34 37 33 33 30 26 25 24 23 23 22 21 19 19 19 21 24 25 25 26
23 21 30 35 37 37 41 42 40 35 33 36 39 35 33 34 33 29 27 26 25 25 24 22 21 22 21 22 24 23 25 22
21 19 26 30 31 32 33 37 39 37 36 36 36 36 34 35 35 30 28 26 26 26 26 25 24 24 22 23 22 22 23 21
19 16 25 29 30 31 37 40 43 39 36 35 34 34 35 36 34 30 29 29 26 26 26 25 25 24 23 23 23 21 21 20
18 17 18 28 30 32 33 35 37 41 39 37 37 37 37 34 32 32 31 30 28 26 26 26 26 24 22 21 21 20 19 17
17 14 14 21 21 27 33 32 39 41 40 40 41 38 36 35 34 34 34 32 31 28 26 26 26 25 23 21 21 20 18 17
17 16 14 21 26 27 26 31 36 39 40 40 41 38 37 36 36 35 35 33 31 28 27 26 25 24 23 21 20 20 19 18
10 11 16 21 28 30 32 32 33 36 33 34 40 39 38 38 37 36 36 33 30 27 25 26 25 24 23 21 20 20 16 15
9 19 18 26 35 40 35 36 37 37 35 33 39 40 39 40 39 37 37 34 31 27 25 24 25 25 23 21 19 17 16 14
19 15 23 31 36 37 38 41 41 38 36 35 37 39 39 41 40 38 37 35 32 29 25 23 23 25 24 21 19 17 16 14
Wind_Direction
151 145 153 161 168 169 164 161 161 158 155 154 151 150 149 152 149 149 154 159 162 172 164 156 123 110 109 112 85 62 57 96
137 137 148 155 164 165 165 163 163 167 163 157 155 150 149 145 144 144 153 152 155 159 147 130 111 111 112 116 95 81 96 116
143 142 149 156 164 167 168 172 173 179 180 171 166 154 148 145 145 143 151 149 149 149 143 123 112 120 122 114 105 90 80 139
154 154 156 163 167 172 175 178 179 179 177 170 157 151 145 142 147 142 140 146 145 145 139 129 118 120 112 110 108 106 97 77
153 159 163 169 177 178 182 185 185 182 182 178 172 161 151 155 149 143 140 141 141 139 136 129 121 120 113 108 110 118 118 104
169 173 174 180 179 180 181 186 188 185 183 184 175 166 164 153 148 146 141 139 140 137 130 126 119 117 111 112 110 104 100 99
185 183 169 173 180 182 179 183 183 184 184 181 178 171 162 157 153 148 145 143 140 139 134 126 121 117 113 108 108 104 99 96
184 169 169 165 170 178 179 179 184 185 186 183 185 180 170 167 161 154 151 147 147 142 139 131 126 119 115 113 111 109 103 100
186 172 169 168 173 176 177 184 189 192 193 188 183 178 174 172 167 160 158 153 149 146 139 134 131 124 120 116 113 109 105 101
187 178 175 172 175 178 180 184 194 196 190 192 188 180 176 172 168 164 161 157 150 148 143 139 137 129 128 121 117 112 107 105
192 181 178 179 178 177 177 179 183 188 193 187 182 178 177 172 168 166 164 157 154 151 146 144 138 134 133 127 122 115 109 106
198 193 179 173 170 171 167 167 173 173 176 177 177 174 173 172 171 166 164 158 157 153 146 146 141 138 136 131 128 126 117 109
195 188 177 172 168 165 165 168 172 174 173 171 173 171 169 170 169 166 165 161 161 156 154 149 145 145 144 138 135 131 125 111
184 174 179 174 168 165 166 167 169 174 173 173 170 170 170 170 169 166 165 162 162 159 159 154 149 151 150 142 137 131 123 114
175 172 174 171 168 164 161 165 173 174 175 175 172 174 174 171 168 167 166 166 163 163 162 157 156 153 150 146 136 130 123 123
168 162 162 162 159 162 169 168 171 175 172 172 175 177 174 172 170 170 169 169 167 168 164 163 161 158 154 151 145 139 132 129
153 154 160 164 164 166 170 171 172 173 172 171 176 177 174 175 172 171 169 170 169 171 170 171 166 164 159 156 151 144 141 135
197 166 171 183 180 174 175 172 168 172 174 172 174 175 173 175 174 172 172 171 171 172 171 171 174 171 164 159 156 150 145 136
311 259 191 186 182 179 169 169 170 170 171 173 173 173 173 175 175 176 174 174 173 174 171 171 167 168 167 161 158 150 148 139